OAL951 SGAS-SLPO

Flight info

Callsign OAL951
Flight time 1h 37m
Altitude 36000
Route SUSRU SUSRU UM548 DAKRO
Aircraft B738/M-SDE2E3FGHIRWXY/LB1

Departure

Time 2026-05-08 15:34
Airport Silvio Pettirossi International Airport (SGAS)

Arrival

Time 2026-05-08 17:12
Airport Capitan Nicolas Rojas Airport (SLPO)
Time Latitude Longitude Altitude Speed Heading
2026-05-08 15:17 -25.24175 -57.51530 281 ft 0 kts 119°
2026-05-08 15:27 -25.24170 -57.51539 277 ft 0 kts 119°
2026-05-08 15:28 -25.24164 -57.51551 277 ft 2 kts 119°
2026-05-08 15:28 -25.24157 -57.51564 282 ft 2 kts 119°
2026-05-08 15:28 -25.24151 -57.51577 279 ft 2 kts 119°
2026-05-08 15:28 -25.24145 -57.51590 285 ft 2 kts 94°
2026-05-08 15:29 -25.24147 -57.51604 277 ft 2 kts 40°
2026-05-08 15:29 -25.24154 -57.51609 282 ft 0 kts
2026-05-08 15:30 -25.24153 -57.51609 282 ft 1 kts
2026-05-08 15:31 -25.24117 -57.51604 278 ft 10 kts
2026-05-08 15:31 -25.24034 -57.51619 277 ft 13 kts 329°
2026-05-08 15:31 -25.23956 -57.51670 277 ft 13 kts 335°
2026-05-08 15:31 -25.23866 -57.51664 277 ft 15 kts 13°
2026-05-08 15:32 -25.23745 -57.51635 277 ft 21 kts 12°
2026-05-08 15:32 -25.23586 -57.51596 279 ft 25 kts 12°
2026-05-08 15:32 -25.23421 -57.51556 277 ft 23 kts 12°
2026-05-08 15:32 -25.23265 -57.51518 277 ft 23 kts 12°
2026-05-08 15:33 -25.23146 -57.51490 277 ft 11 kts 12°
2026-05-08 15:33 -25.23102 -57.51491 278 ft 4 kts 322°
2026-05-08 15:33 -25.23076 -57.51566 274 ft 14 kts 282°
2026-05-08 15:33 -25.23076 -57.51681 272 ft 16 kts 229°
2026-05-08 15:34 -25.23239 -57.51730 271 ft 50 kts 192°
2026-05-08 15:34 -25.23807 -57.51867 275 ft 115 kts 192°
2026-05-08 15:34 -25.24751 -57.52100 378 ft 156 kts 189°
2026-05-08 15:34 -25.25807 -57.52369 1047 ft 155 kts 190°
2026-05-08 15:35 -25.26859 -57.52637 1807 ft 154 kts 190°
2026-05-08 15:35 -25.27912 -57.52894 2521 ft 162 kts 188°
2026-05-08 15:35 -25.29124 -57.53184 2781 ft 190 kts 188°
2026-05-08 15:35 -25.30486 -57.53499 3054 ft 211 kts 189°
2026-05-08 15:36 -25.31953 -57.53872 3510 ft 227 kts 189°
2026-05-08 15:36 -25.33542 -57.54273 4090 ft 238 kts 190°
2026-05-08 15:36 -25.35175 -57.54685 4902 ft 243 kts 190°
2026-05-08 15:36 -25.36853 -57.55105 5562 ft 253 kts 190°
2026-05-08 15:37 -25.38574 -57.55653 6239 ft 264 kts 204°
2026-05-08 15:37 -25.40030 -57.56949 6918 ft 275 kts 230°
2026-05-08 15:37 -25.40826 -57.58855 7854 ft 275 kts 257°
2026-05-08 15:37 -25.40888 -57.60935 8871 ft 269 kts 277°
2026-05-08 15:38 -25.40531 -57.62979 9668 ft 272 kts 283°
2026-05-08 15:38 -25.40090 -57.65010 10425 ft 274 kts 284°
2026-05-08 15:38 -25.39627 -57.67142 10625 ft 297 kts 285°
2026-05-08 15:38 -25.38752 -57.69291 10783 ft 319 kts 305°
2026-05-08 15:39 -25.37206 -57.71161 11023 ft 338 kts 314°
2026-05-08 15:39 -25.35487 -57.72980 11546 ft 344 kts 315°
2026-05-08 15:39 -25.33741 -57.74794 12262 ft 344 kts 315°
2026-05-08 15:39 -25.32003 -57.76598 13064 ft 343 kts 315°
2026-05-08 15:40 -25.30269 -57.78406 13805 ft 343 kts 315°
2026-05-08 15:40 -25.28555 -57.80203 14438 ft 345 kts 315°
2026-05-08 15:40 -25.26808 -57.82042 15047 ft 348 kts 314°
2026-05-08 15:40 -25.25047 -57.83900 15646 ft 352 kts 314°
2026-05-08 15:41 -25.23273 -57.85775 16242 ft 355 kts 314°
2026-05-08 15:41 -25.21484 -57.87667 16840 ft 358 kts 313°
2026-05-08 15:41 -25.19683 -57.89571 17414 ft 360 kts 313°
2026-05-08 15:41 -25.17863 -57.91496 17973 ft 364 kts 313°
2026-05-08 15:42 -25.16032 -57.93431 18495 ft 366 kts 313°
2026-05-08 15:42 -25.14183 -57.95384 18983 ft 369 kts 312°
2026-05-08 15:42 -25.12324 -57.97347 19394 ft 372 kts 312°
2026-05-08 15:42 -25.10439 -57.99338 19723 ft 379 kts 312°
2026-05-08 15:43 -25.08527 -58.01356 20178 ft 381 kts 312°
2026-05-08 15:43 -25.06608 -58.03379 20676 ft 383 kts 312°
2026-05-08 15:43 -25.04678 -58.05411 21149 ft 385 kts 312°
2026-05-08 15:43 -25.02734 -58.07460 21584 ft 388 kts 312°
2026-05-08 15:44 -25.00775 -58.09523 22005 ft 391 kts 312°
2026-05-08 15:44 -24.98803 -58.11598 22431 ft 394 kts 312°
2026-05-08 15:44 -24.96815 -58.13690 22868 ft 396 kts 312°
2026-05-08 15:44 -24.94814 -58.15795 23290 ft 399 kts 311°
2026-05-08 15:45 -24.92801 -58.17910 23684 ft 402 kts 311°
2026-05-08 15:45 -24.90771 -58.20043 23986 ft 404 kts 312°
2026-05-08 15:45 -24.88726 -58.22190 24270 ft 409 kts 311°
2026-05-08 15:45 -24.86660 -58.24359 24605 ft 411 kts 311°
2026-05-08 15:46 -24.84594 -58.26526 24995 ft 411 kts 311°
2026-05-08 15:46 -24.82519 -58.28701 25362 ft 412 kts 311°
2026-05-08 15:46 -24.80437 -58.30883 25709 ft 414 kts 311°
2026-05-08 15:46 -24.78350 -58.33071 26023 ft 416 kts 311°
2026-05-08 15:47 -24.76254 -58.35268 26364 ft 417 kts 311°
2026-05-08 15:47 -24.74149 -58.37475 26690 ft 419 kts 311°
2026-05-08 15:47 -24.72038 -58.39687 27017 ft 420 kts 311°
2026-05-08 15:47 -24.69919 -58.41905 27325 ft 421 kts 311°
2026-05-08 15:48 -24.65655 -58.46368 27914 ft 425 kts 311°
2026-05-08 15:48 -24.63510 -58.48611 28217 ft 426 kts 311°
2026-05-08 15:48 -24.61358 -58.50860 28481 ft 428 kts 311°
2026-05-08 15:49 -24.59195 -58.53120 28752 ft 430 kts 311°
2026-05-08 15:49 -24.57028 -58.55382 29092 ft 430 kts 311°
2026-05-08 15:49 -24.54868 -58.57635 29545 ft 427 kts 311°
2026-05-08 15:49 -24.52748 -58.59843 30033 ft 424 kts 311°
2026-05-08 15:50 -24.50617 -58.62064 30447 ft 421 kts 311°
2026-05-08 15:50 -24.48493 -58.64276 30762 ft 420 kts 311°
2026-05-08 15:50 -24.46369 -58.66490 31003 ft 422 kts 311°
2026-05-08 15:50 -24.44238 -58.68711 31297 ft 422 kts 311°
2026-05-08 15:51 -24.42114 -58.70920 31701 ft 420 kts 311°
2026-05-08 15:51 -24.40009 -58.73109 32140 ft 416 kts 312°
2026-05-08 15:51 -24.37923 -58.75276 32528 ft 414 kts 312°
2026-05-08 15:51 -24.35835 -58.77447 32869 ft 413 kts 312°
2026-05-08 15:52 -24.33749 -58.79614 33194 ft 412 kts 312°
2026-05-08 15:52 -24.31673 -58.81770 33570 ft 410 kts 312°
2026-05-08 15:52 -24.29605 -58.83915 33947 ft 408 kts 312°
2026-05-08 15:52 -24.27546 -58.86051 34260 ft 407 kts 312°
2026-05-08 15:53 -24.25495 -58.88179 34484 ft 407 kts 312°
2026-05-08 15:53 -24.23431 -58.90321 34590 ft 410 kts 312°
2026-05-08 15:53 -24.21356 -58.92471 34807 ft 410 kts 312°
2026-05-08 15:53 -24.19290 -58.94608 35168 ft 407 kts 312°
2026-05-08 15:54 -24.17252 -58.96739 35518 ft 404 kts 311°
2026-05-08 15:54 -24.15242 -58.98869 35803 ft 402 kts 311°
2026-05-08 15:54 -24.13236 -59.01003 36024 ft 402 kts 311°
2026-05-08 15:55 -24.09197 -59.05305 36044 ft 406 kts 311°
2026-05-08 15:55 -24.03177 -59.11689 36010 ft 399 kts 311°
2026-05-08 15:56 -23.99184 -59.15917 36031 ft 400 kts 311°
2026-05-08 15:56 -23.95172 -59.20161 36043 ft 402 kts 311°
2026-05-08 15:57 -23.91135 -59.24427 36040 ft 404 kts 311°
2026-05-08 15:57 -23.87082 -59.28705 36041 ft 406 kts 311°
2026-05-08 15:58 -23.83009 -59.32999 36033 ft 407 kts 311°
2026-05-08 15:58 -23.78930 -59.37296 36027 ft 408 kts 311°
2026-05-08 15:59 -23.74845 -59.41595 36035 ft 408 kts 311°
2026-05-08 15:59 -23.70751 -59.45899 36036 ft 408 kts 311°
2026-05-08 16:00 -23.66658 -59.50199 36038 ft 408 kts 311°
2026-05-08 16:00 -23.62568 -59.54491 36037 ft 408 kts 311°
2026-05-08 16:01 -23.58509 -59.58748 36011 ft 407 kts 311°
2026-05-08 16:01 -23.54428 -59.63024 36035 ft 407 kts 311°
2026-05-08 16:02 -23.50343 -59.67299 36033 ft 407 kts 311°
2026-05-08 16:02 -23.46261 -59.71569 36036 ft 407 kts 311°
2026-05-08 16:03 -23.42171 -59.75842 36036 ft 407 kts 311°
2026-05-08 16:03 -23.38081 -59.80112 36030 ft 408 kts 311°
2026-05-08 16:04 -23.33989 -59.84380 36022 ft 407 kts 311°
2026-05-08 16:04 -23.29890 -59.88651 36040 ft 408 kts 311°
2026-05-08 16:05 -23.25783 -59.92928 36034 ft 409 kts 311°
2026-05-08 16:05 -23.21665 -59.97211 36028 ft 410 kts 311°
2026-05-08 16:06 -23.17534 -60.01505 36031 ft 411 kts 311°
2026-05-08 16:06 -23.13394 -60.05804 36000 ft 412 kts 312°
2026-05-08 16:07 -23.09251 -60.10102 36023 ft 412 kts 312°
2026-05-08 16:07 -23.05104 -60.14401 36032 ft 413 kts 312°
2026-05-08 16:08 -23.00947 -60.18708 36035 ft 413 kts 311°
2026-05-08 16:08 -22.96873 -60.23103 36029 ft 411 kts 306°
2026-05-08 16:09 -22.94223 -60.27321 36041 ft 406 kts 298°
2026-05-08 16:09 -22.90738 -60.33416 36017 ft 407 kts 299°
2026-05-08 16:10 -22.88245 -60.37743 36028 ft 407 kts 299°
2026-05-08 16:10 -22.85233 -60.42943 36034 ft 407 kts 299°
2026-05-08 16:11 -22.82213 -60.48142 36027 ft 408 kts 299°
2026-05-08 16:11 -22.79188 -60.53342 36031 ft 408 kts 299°
2026-05-08 16:12 -22.76158 -60.58546 36030 ft 408 kts 299°
2026-05-08 16:12 -22.73125 -60.63750 36036 ft 409 kts 299°
2026-05-08 16:13 -22.70089 -60.68955 36013 ft 409 kts 299°
2026-05-08 16:13 -22.67051 -60.74157 36026 ft 408 kts 299°
2026-05-08 16:14 -22.64013 -60.79355 36033 ft 409 kts 299°
2026-05-08 16:14 -22.60968 -60.84559 36036 ft 409 kts 299°
2026-05-08 16:15 -22.57921 -60.89762 36038 ft 409 kts 299°
2026-05-08 16:15 -22.54889 -60.94934 36040 ft 410 kts 299°
2026-05-08 16:16 -22.51833 -61.00141 36034 ft 410 kts 299°
2026-05-08 16:16 -22.48772 -61.05352 36030 ft 410 kts 299°
2026-05-08 16:17 -22.45709 -61.10561 36036 ft 411 kts 299°
2026-05-08 16:17 -22.42641 -61.15775 36031 ft 411 kts 299°
2026-05-08 16:18 -22.39571 -61.20985 36034 ft 411 kts 299°
2026-05-08 16:18 -22.36497 -61.26197 36041 ft 411 kts 300°
2026-05-08 16:19 -22.33421 -61.31409 36036 ft 412 kts 300°
2026-05-08 16:19 -22.30339 -61.36623 36031 ft 412 kts 299°
2026-05-08 16:20 -22.27266 -61.41819 36020 ft 411 kts 300°
2026-05-08 16:20 -22.24186 -61.47021 36035 ft 411 kts 300°
2026-05-08 16:21 -22.21102 -61.52225 36039 ft 411 kts 300°
2026-05-08 16:21 -22.18016 -61.57427 36035 ft 412 kts 300°
2026-05-08 16:22 -22.14948 -61.62594 36037 ft 412 kts 300°
2026-05-08 16:22 -22.11858 -61.67792 36035 ft 412 kts 300°
2026-05-08 16:23 -22.08766 -61.72989 36035 ft 412 kts 300°
2026-05-08 16:23 -22.05672 -61.78186 36012 ft 412 kts 300°
2026-05-08 16:24 -22.02581 -61.83371 36026 ft 411 kts 300°
2026-05-08 16:24 -21.99491 -61.88549 36032 ft 410 kts 300°
2026-05-08 16:25 -21.96404 -61.93718 36018 ft 410 kts 300°
2026-05-08 16:25 -21.93316 -61.98885 36037 ft 410 kts 300°
2026-05-08 16:26 -21.90224 -62.04052 36035 ft 411 kts 300°
2026-05-08 16:26 -21.87127 -62.09222 36029 ft 411 kts 300°
2026-05-08 16:27 -21.84025 -62.14397 36010 ft 411 kts 300°
2026-05-08 16:27 -21.80923 -62.19567 36025 ft 411 kts 300°
2026-05-08 16:28 -21.77821 -62.24731 36021 ft 411 kts 300°
2026-05-08 16:28 -21.74715 -62.29898 36027 ft 411 kts 300°
2026-05-08 16:29 -21.71610 -62.35058 36027 ft 411 kts 300°
2026-05-08 16:29 -21.68503 -62.40219 36030 ft 411 kts 300°
2026-05-08 16:30 -21.65391 -62.45381 36026 ft 411 kts 300°
2026-05-08 16:30 -21.62294 -62.50501 36027 ft 411 kts 301°
2026-05-08 16:31 -21.59174 -62.55649 36017 ft 411 kts 301°
2026-05-08 16:31 -21.56057 -62.60790 36031 ft 410 kts 301°
2026-05-08 16:32 -21.52941 -62.65927 36024 ft 410 kts 301°
2026-05-08 16:32 -21.49822 -62.71064 36028 ft 410 kts 301°
2026-05-08 16:33 -21.46706 -62.76193 36025 ft 410 kts 301°
2026-05-08 16:33 -21.43590 -62.81316 36028 ft 410 kts 301°
2026-05-08 16:34 -21.40470 -62.86440 36022 ft 410 kts 301°
2026-05-08 16:34 -21.37346 -62.91568 36025 ft 411 kts 301°
2026-05-08 16:35 -21.34237 -62.96667 36025 ft 411 kts 301°
2026-05-08 16:35 -21.31106 -63.01796 36022 ft 411 kts 301°
2026-05-08 16:36 -21.28022 -63.06954 36033 ft 411 kts 300°
2026-05-08 16:36 -21.24979 -63.12139 36047 ft 410 kts 300°
2026-05-08 16:37 -21.21937 -63.17314 36044 ft 411 kts 300°
2026-05-08 16:37 -21.18884 -63.22492 36055 ft 411 kts 300°
2026-05-08 16:38 -21.15828 -63.27663 36045 ft 411 kts 300°
2026-05-08 16:38 -21.12771 -63.32829 36060 ft 410 kts 300°
2026-05-08 16:39 -21.09720 -63.37980 36060 ft 409 kts 300°
2026-05-08 16:39 -21.06679 -63.43110 36015 ft 408 kts 300°
2026-05-08 16:40 -21.03637 -63.48238 36025 ft 409 kts 300°
2026-05-08 16:40 -21.00581 -63.53385 36013 ft 410 kts 300°
2026-05-08 16:41 -20.97522 -63.58530 36021 ft 410 kts 300°
2026-05-08 16:42 -20.92940 -63.66230 36018 ft 409 kts 300°
2026-05-08 16:42 -20.89888 -63.71351 35963 ft 408 kts 300°
2026-05-08 16:43 -20.86850 -63.76447 35996 ft 406 kts 300°
2026-05-08 16:43 -20.83816 -63.81531 36000 ft 406 kts 300°
2026-05-08 16:44 -20.80800 -63.86581 36013 ft 405 kts 300°
2026-05-08 16:44 -20.77755 -63.91675 36006 ft 407 kts 300°
2026-05-08 16:45 -20.74697 -63.96787 36005 ft 409 kts 300°
2026-05-08 16:45 -20.71624 -64.01917 36012 ft 411 kts 300°
2026-05-08 16:46 -20.68541 -64.07062 35984 ft 411 kts 300°
2026-05-08 16:46 -20.65467 -64.12188 36012 ft 409 kts 300°
2026-05-08 16:47 -20.62423 -64.17322 36016 ft 409 kts 300°
2026-05-08 16:47 -20.59382 -64.22461 36012 ft 410 kts 300°
2026-05-08 16:48 -20.56336 -64.27600 36005 ft 409 kts 300°
2026-05-08 16:48 -20.53295 -64.32720 36003 ft 408 kts 300°
2026-05-08 16:49 -20.50264 -64.37813 36011 ft 405 kts 300°
2026-05-08 16:49 -20.47236 -64.42908 35989 ft 408 kts 300°
2026-05-08 16:50 -20.44189 -64.48024 35984 ft 408 kts 300°
2026-05-08 16:50 -20.41139 -64.53137 35976 ft 409 kts 300°
2026-05-08 16:51 -20.38082 -64.58261 35953 ft 410 kts 300°
2026-05-08 16:51 -20.35029 -64.63374 35934 ft 409 kts 300°
2026-05-08 16:52 -20.31982 -64.68486 35918 ft 408 kts 300°
2026-05-08 16:52 -20.28948 -64.73595 35898 ft 409 kts 300°
2026-05-08 16:53 -20.24371 -64.81296 35888 ft 411 kts 300°
2026-05-08 16:53 -20.21309 -64.86441 35888 ft 412 kts 300°
2026-05-08 16:54 -20.18243 -64.91587 35893 ft 411 kts 300°
2026-05-08 16:54 -20.16712 -64.94157 35692 ft 414 kts 300°
2026-05-08 16:54 -20.15159 -64.96761 35146 ft 416 kts 300°
2026-05-08 16:55 -20.13613 -64.99357 34526 ft 415 kts 300°
2026-05-08 16:55 -20.12070 -65.01962 33860 ft 417 kts 300°
2026-05-08 16:55 -20.10524 -65.04579 33092 ft 418 kts 300°
2026-05-08 16:55 -20.08973 -65.07205 32368 ft 420 kts 300°
2026-05-08 16:56 -20.07418 -65.09837 31637 ft 421 kts 300°
2026-05-08 16:56 -20.05854 -65.12481 30908 ft 423 kts 300°
2026-05-08 16:56 -20.04310 -65.15090 30394 ft 420 kts 300°
2026-05-08 16:56 -20.02755 -65.17715 29839 ft 419 kts 300°
2026-05-08 16:57 -20.01184 -65.20364 29237 ft 416 kts 300°
2026-05-08 16:57 -19.99668 -65.22919 28674 ft 413 kts 300°
2026-05-08 16:57 -19.98145 -65.25485 28148 ft 408 kts 300°
2026-05-08 16:57 -19.96635 -65.28030 27615 ft 405 kts 300°
2026-05-08 16:58 -19.95138 -65.30552 27127 ft 402 kts 300°
2026-05-08 16:58 -19.93652 -65.33054 26617 ft 399 kts 300°
2026-05-08 16:58 -19.92172 -65.35545 26115 ft 397 kts 300°
2026-05-08 16:58 -19.90707 -65.38011 25616 ft 395 kts 300°
2026-05-08 16:59 -19.89245 -65.40471 25109 ft 393 kts 300°
2026-05-08 16:59 -19.88260 -65.42127 24786 ft 391 kts 300°
2026-05-08 16:59 -19.86805 -65.44573 24301 ft 392 kts 300°
2026-05-08 16:59 -19.84878 -65.47809 23630 ft 392 kts 301°
2026-05-08 17:00 -19.83817 -65.49403 23238 ft 390 kts 307°
2026-05-08 17:00 -19.81940 -65.51446 22699 ft 383 kts 317°
2026-05-08 17:00 -19.79847 -65.53102 22209 ft 380 kts 327°
2026-05-08 17:00 -19.77512 -65.54495 21720 ft 380 kts 329°
2026-05-08 17:01 -19.75192 -65.55832 21247 ft 379 kts 329°
2026-05-08 17:01 -19.72904 -65.57152 20753 ft 370 kts 329°
2026-05-08 17:01 -19.70688 -65.58439 20169 ft 365 kts 329°
2026-05-08 17:01 -19.68482 -65.59731 19606 ft 360 kts 328°
2026-05-08 17:02 -19.66313 -65.61005 19151 ft 352 kts 328°
2026-05-08 17:02 -19.64193 -65.62253 18707 ft 345 kts 329°
2026-05-08 17:02 -19.62115 -65.63475 18286 ft 338 kts 329°
2026-05-08 17:02 -19.59939 -65.64318 17874 ft 334 kts 349°
2026-05-08 17:03 -19.57651 -65.64284 17552 ft 327 kts
2026-05-08 17:03 -19.55534 -65.63525 17316 ft 317 kts 24°
2026-05-08 17:03 -19.53723 -65.62270 17100 ft 307 kts 40°
2026-05-08 17:03 -19.52351 -65.60617 17040 ft 291 kts 55°
2026-05-08 17:04 -19.51402 -65.58799 17056 ft 273 kts 69°
2026-05-08 17:04 -19.50972 -65.56880 17066 ft 265 kts 83°
2026-05-08 17:04 -19.50733 -65.54946 17059 ft 264 kts 83°
2026-05-08 17:04 -19.50513 -65.53058 17063 ft 254 kts 84°
2026-05-08 17:05 -19.50300 -65.51215 17054 ft 253 kts 84°
2026-05-08 17:05 -19.50061 -65.49358 17051 ft 256 kts 77°
2026-05-08 17:05 -19.49324 -65.47697 17039 ft 245 kts 50°
2026-05-08 17:05 -19.48046 -65.46577 17038 ft 236 kts 24°
2026-05-08 17:06 -19.46483 -65.46105 17039 ft 234 kts
2026-05-08 17:06 -19.44891 -65.46299 17057 ft 229 kts 338°
2026-05-08 17:06 -19.43516 -65.47104 17050 ft 226 kts 315°
2026-05-08 17:06 -19.42551 -65.48381 17039 ft 221 kts 294°
2026-05-08 17:07 -19.42123 -65.49921 17030 ft 217 kts 272°
2026-05-08 17:07 -19.42216 -65.51504 17041 ft 215 kts 257°
2026-05-08 17:07 -19.42745 -65.52988 16885 ft 219 kts 241°
2026-05-08 17:07 -19.43534 -65.54369 16596 ft 218 kts 238°
2026-05-08 17:08 -19.44349 -65.55712 16295 ft 215 kts 238°
2026-05-08 17:08 -19.45144 -65.57019 16003 ft 207 kts 238°
2026-05-08 17:08 -19.45905 -65.58281 15720 ft 199 kts 238°
2026-05-08 17:08 -19.46637 -65.59502 15459 ft 195 kts 238°
2026-05-08 17:09 -19.47347 -65.60693 15174 ft 192 kts 238°
2026-05-08 17:09 -19.48060 -65.61891 14983 ft 188 kts 239°
2026-05-08 17:09 -19.48740 -65.63036 14707 ft 179 kts 239°
2026-05-08 17:09 -19.49379 -65.64109 14567 ft 172 kts 239°
2026-05-08 17:10 -19.50008 -65.65185 14432 ft 173 kts 241°
2026-05-08 17:10 -19.50598 -65.66289 14243 ft 169 kts 243°
2026-05-08 17:10 -19.51151 -65.67385 13966 ft 168 kts 240°
2026-05-08 17:10 -19.51812 -65.68439 13547 ft 173 kts 236°
2026-05-08 17:11 -19.52477 -65.69489 13193 ft 171 kts 238°
2026-05-08 17:11 -19.53144 -65.70524 12731 ft 170 kts 237°
2026-05-08 17:11 -19.53795 -65.71557 12453 ft 162 kts 238°
2026-05-08 17:11 -19.54345 -65.72432 12469 ft 116 kts 236°
2026-05-08 17:12 -19.54675 -65.72946 12499 ft 53 kts 236°
2026-05-08 17:12 -19.54795 -65.73135 12511 ft 24 kts 236°
2026-05-08 17:12 -19.54863 -65.73248 12517 ft 12 kts 245°
2026-05-08 17:12 -19.54894 -65.73315 12520 ft 0 kts 241°
2026-05-08 17:13 -19.54897 -65.73315 12527 ft 0 kts 203°
2026-05-08 17:13 -19.54901 -65.73313 12526 ft 1 kts 161°
2026-05-08 17:13 -19.54901 -65.73303 12521 ft 3 kts 85°
2026-05-08 17:13 -19.54885 -65.73274 12519 ft 6 kts 57°
2026-05-08 17:14 -19.54856 -65.73229 12516 ft 8 kts 54°
2026-05-08 17:14 -19.54820 -65.73174 12513 ft 10 kts 56°
2026-05-08 17:14 -19.54780 -65.73111 12510 ft 11 kts 56°
2026-05-08 17:14 -19.54731 -65.73035 12505 ft 14 kts 56°
2026-05-08 17:15 -19.54672 -65.72944 12499 ft 16 kts 56°
2026-05-08 17:15 -19.54607 -65.72841 12494 ft 17 kts 57°
2026-05-08 17:15 -19.54541 -65.72736 12489 ft 17 kts 56°
2026-05-08 17:15 -19.54478 -65.72636 12482 ft 17 kts 56°
2026-05-08 17:16 -19.54408 -65.72526 12476 ft 19 kts 56°
2026-05-08 17:16 -19.54333 -65.72410 12468 ft 19 kts 56°
2026-05-08 17:16 -19.54263 -65.72298 12463 ft 18 kts 57°
2026-05-08 17:16 -19.54200 -65.72199 12458 ft 10 kts 56°
2026-05-08 17:17 -19.54164 -65.72128 12454 ft 12 kts 85°
2026-05-08 17:17 -19.54213 -65.72064 12446 ft 11 kts 145°
2026-05-08 17:17 -19.54264 -65.72011 12445 ft 10 kts 118°
2026-05-08 17:17 -19.54277 -65.71974 12444 ft 0 kts 103°